CW3642 Weather Reports


Display with metric or nautical units.
time (UTC)temp
F
wind
direction
speed
MPH
gust
MPH
rain 1hr
in
rain 24hr
in
rain mn
in
humidity
%
barometer
mb
20260505003830 46 360 0.0 15.0 0.02 0.08 0.08 90 994.7
20260505003330 47 360 0.0 15.0 0.02 0.08 0.08 89 995.0
20260505002830 47 360 0.0 15.0 0.02 0.08 0.08 89 994.6
20260505002330 47 360 0.0 15.0 0.03 0.08 0.08 89 994.6
20260505001830 47 360 0.0 15.0 0.03 0.08 0.08 88 994.8
20260505000330 49 360 0.0 15.0 0.06 0.08 0.08 85 995.9
20260504235830 50 360 0.0 15.0 0.06 0.08 0.08 83 996.1
20260504235330 51 360 0.0 15.0 0.06 0.07 0.07 83 996.0
20260504234830 52 360 2.0 15.0 0.06 0.07 0.07 83 995.9
20260504234330 54 360 0.0 15.0 0.06 0.07 0.07 82 995.2
20260504233830 55 360 1.0 15.0 0.05 0.06 0.06 80 994.9
20260504232830 56 360 2.0 15.0 0.05 0.08 0.06 80 994.1
20260504232330 57 360 6.0 15.0 0.04 0.10 0.05 78 993.8
20260504231830 58 360 4.0 15.0 0.04 0.12 0.05 74 994.1
20260504231330 59 360 4.0 15.0 0.03 0.13 0.04 73 994.8
20260504230830 60 360 2.0 15.0 0.02 0.14 0.03 69 994.0
20260504230330 61 360 0.0 15.0 0.01 0.13 0.02 66 993.7
20260504225830 62 360 0.0 15.0 0.01 0.13 0.02 65 993.7
20260504225330 64 360 0.0 15.0 0.00 0.12 0.01 62 993.3
20260504224830 65 360 4.0 15.0 0.00 0.12 0.01 58 993.4
20260504223830 65 360 3.0 15.0 0.00 0.12 0.01 47 992.7
20260504223330 65 360 8.0 15.0 0.00 0.12 0.01 48 992.6
20260504222330 65 360 18.0 15.0 0.00 0.12 0.01 49 992.7
20260504221330 66 360 11.0 15.0 0.00 0.12 0.01 47 992.6
20260504220830 66 360 8.0 19.0 0.00 0.12 0.01 46 992.5
20260504215839 67 360 11.0 19.0 0.00 0.12 0.01 45 992.7
20260504214839 67 360 20.0 19.0 0.00 0.12 0.01 42 992.5
20260504214340 68 360 17.0 19.0 0.00 0.12 0.01 41 992.7
20260504213839 68 360 18.0 19.0 0.00 0.12 0.01 40 992.6
20260504213339 69 360 6.0 19.0 0.00 0.12 0.01 40 992.6
20260504212839 69 360 11.0 19.0 0.00 0.12 0.01 40 992.5
20260504212339 69 360 12.0 19.0 0.00 0.12 0.01 39 992.7
20260504211839 69 360 11.0 19.0 0.00 0.12 0.01 38 992.5
20260504211340 70 360 8.0 19.0 0.00 0.12 0.01 37 992.5
20260504210839 70 360 12.0 19.0 0.00 0.12 0.01 38 992.6
20260504210339 71 360 8.0 19.0 0.00 0.12 0.01 37 992.6
20260504205839 71 360 12.0 19.0 0.00 0.12 0.01 37 992.6
20260504205340 70 360 10.0 19.0 0.00 0.12 0.01 38 992.5
20260504204339 69 360 9.0 19.0 0.00 0.12 0.01 40 992.6
20260504203340 67 360 8.0 19.0 0.00 0.12 0.01 41 992.4
20260504202840 67 360 8.0 19.0 0.00 0.12 0.01 40 992.6
20260504202339 67 360 10.0 19.0 0.00 0.12 0.01 40 992.7
20260504201840 67 360 10.0 19.0 0.00 0.12 0.01 40 992.7
20260504201340 68 360 6.0 19.0 0.00 0.12 0.01 41 992.6
20260504200839 68 360 23.0 19.0 0.00 0.12 0.01 38 992.7
20260504200339 68 360 15.0 19.0 0.00 0.12 0.01 39 992.6
20260504195839 69 360 14.0 19.0 0.00 0.12 0.01 38 992.7
20260504194839 69 360 10.0 19.0 0.00 0.12 0.01 38 992.7
20260504194339 70 360 10.0 19.0 0.00 0.12 0.01 37 992.6
20260504193840 70 360 10.0 19.0 0.00 0.12 0.01 38 992.8
20260504193339 69 360 5.0 19.0 0.00 0.12 0.01 38 992.9
20260504192840 68 360 14.0 19.0 0.00 0.12 0.01 39 992.9
20260504192340 68 360 4.0 19.0 0.00 0.12 0.01 39 992.9
20260504191840 67 360 6.0 19.0 0.00 0.12 0.01 40 993.0
20260504191339 67 360 10.0 19.0 0.00 0.12 0.01 39 993.0
20260504190839 67 360 14.0 19.0 0.00 0.12 0.01 39 993.3
20260504190339 67 360 8.0 19.0 0.00 0.12 0.01 38 993.1
20260504185839 68 360 10.0 19.0 0.00 0.12 0.01 38 993.2
20260504185340 68 360 12.0 19.0 0.00 0.12 0.01 38 993.1
20260504184840 69 360 16.0 19.0 0.00 0.12 0.01 36 993.2
20260504184340 69 360 6.0 19.0 0.00 0.12 0.01 37 993.1
20260504183839 69 360 22.0 19.0 0.00 0.12 0.01 35 993.1
20260504183340 70 360 6.0 19.0 0.00 0.12 0.01 38 993.1
20260504182839 70 360 12.0 19.0 0.00 0.12 0.01 34 993.2
20260504181840 71 360 4.0 19.0 0.00 0.12 0.01 34 993.1
20260504181340 71 360 9.0 19.0 0.00 0.12 0.01 34 993.1
20260504180840 71 360 10.0 21.0 0.00 0.12 0.01 34 993.1
20260504175848 71 360 5.0 21.0 0.00 0.12 0.01 35 993.2
20260504175347 71 360 5.0 21.0 0.00 0.12 0.01 34 993.3
20260504174348 71 360 5.0 21.0 0.00 0.12 0.01 34 993.3
20260504173848 72 360 9.0 21.0 0.00 0.12 0.01 35 993.3
20260504172836 71 360 14.0 17.0 0.00 0.12 0.01 34 993.7
20260504172336 72 360 8.0 17.0 0.00 0.12 0.01 33 993.8
20260504171836 71 360 8.0 17.0 0.00 0.12 0.01 34 993.7
20260504171336 71 360 6.0 17.0 0.00 0.12 0.01 37 993.8
20260504170836 71 360 17.0 17.0 0.00 0.12 0.01 36 994.1
20260504170336 71 360 14.0 17.0 0.00 0.12 0.01 35 994.1
20260504160336 66 360 6.0 17.0 0.00 0.12 0.01 44 994.9
20260504150336 62 360 11.0 17.0 0.00 0.12 0.01 53 996.2
20260504140836 57 360 10.0 17.0 0.00 0.12 0.01 67 996.9
20260504130330 53 360 6.0 0.0 0.00 0.12 0.01 78 997.7
20260504110330 42 360 0.0 0.0 0.00 0.12 0.01 94 998.4
20260504081328 38 360 0.0 0.0 0.00 0.11 0.00 94 1000.4
20260504080828 38 360 0.0 0.0 0.00 0.11 0.00 94 1000.3
20260504050329 39 360 0.0 6.0 0.00 0.11 0.00 93 1002.2
20260504045829 39 360 0.0 6.0 0.00 0.11 0.00 93 1002.2
20260504045329 39 360 0.0 6.0 0.00 0.11 0.00 93 1002.2
20260504044829 39 360 0.0 6.0 0.00 0.11 0.00 93 1002.3
20260504044329 40 360 0.0 6.0 0.00 0.11 0.00 93 1002.2
20260504043829 40 360 0.0 6.0 0.00 0.11 0.00 93 1002.3
20260504042329 41 360 0.0 6.0 0.00 0.11 0.00 92 1002.6
20260504041829 41 360 0.0 6.0 0.00 0.11 0.00 92 1002.6
20260504041329 41 360 0.0 6.0 0.00 0.11 0.00 92 1002.5
20260504040329 42 360 0.0 6.0 0.00 0.11 0.00 92 1002.8
20260504035829 42 360 0.0 6.0 0.00 0.11 0.00 91 1002.9
20260504035329 43 360 0.0 6.0 0.00 0.11 0.11 91 1002.8
20260504034829 43 360 0.0 6.0 0.00 0.11 0.11 91 1002.9
20260504034329 43 360 0.0 6.0 0.00 0.11 0.11 91 1002.9
20260504033829 44 360 0.0 6.0 0.00 0.11 0.11 90 1002.9
20260504033329 44 360 0.0 6.0 0.00 0.11 0.11 90 1002.9
20260504032829 45 360 0.0 6.0 0.00 0.11 0.11 90 1002.9
20260504032329 45 360 0.0 6.0 0.00 0.11 0.11 90 1003.1
20260504031330 46 360 0.0 6.0 0.00 0.11 0.11 90 1003.2
20260504030829 47 360 0.0 6.0 0.00 0.11 0.11 89 1003.2
20260504030329 47 360 0.0 6.0 0.00 0.11 0.11 89 1003.3
20260504025829 48 360 0.0 6.0 0.00 0.11 0.11 88 1003.3
20260504025329 48 360 0.0 6.0 0.00 0.11 0.11 88 1003.3
20260504024829 48 360 0.0 6.0 0.00 0.11 0.11 88 1003.1
20260504024329 49 360 0.0 6.0 0.00 0.11 0.11 87 1002.8
20260504023329 49 360 5.0 6.0 0.00 0.11 0.11 86 1002.5
20260504022829 49 360 4.0 6.0 0.00 0.11 0.11 86 1002.6
20260504022329 48 360 10.0 6.0 0.00 0.11 0.11 87 1002.5
20260504021829 48 360 6.0 6.0 0.00 0.11 0.11 87 1002.2
20260504021329 48 360 4.0 6.0 0.00 0.11 0.11 87 1002.3
20260504020829 49 360 0.0 18.0 0.00 0.11 0.11 87 1002.2
20260504015825 49 360 3.0 18.0 0.00 0.11 0.11 87 1002.2
20260504015325 49 360 5.0 18.0 0.00 0.11 0.11 86 1002.1
20260504014825 49 360 2.0 18.0 0.00 0.11 0.11 87 1002.1
20260504014325 49 360 6.0 18.0 0.00 0.11 0.11 86 1001.9
20260504013325 49 360 10.0 18.0 0.00 0.11 0.11 87 1002.1
20260504012825 49 360 11.0 18.0 0.00 0.11 0.11 88 1002.1
20260504012325 49 360 3.0 18.0 0.00 0.11 0.11 88 1002.0
20260504011825 48 360 2.0 18.0 0.00 0.11 0.11 89 1002.0
20260504011325 48 360 10.0 18.0 0.00 0.11 0.11 90 1001.8
20260504010825 48 360 10.0 18.0 0.00 0.11 0.11 90 1001.9
20260504010325 48 360 3.0 18.0 0.00 0.11 0.11 90 1001.8
20260504005825 48 360 3.0 18.0 0.00 0.11 0.11 91 1001.8
20260504005325 48 360 10.0 18.0 0.00 0.11 0.11 92 1001.7
20260504004825 48 360 0.0 18.0 0.00 0.11 0.11 93 1001.7
20260504004325 48 360 5.0 18.0 0.00 0.11 0.11 93 1001.9